Location: Unspecified
(0.0000°N, 0.0000°E)
Time: 23:05:12
(UTC+00:00)

Courier 1B Rocket - All Passes

Search period start: 28 May 2022 00:00
Search period end: 07 June 2022 00:00
Orbit: 920 x 1202 km, 28.2° (Epoch: 28 May)

Date Brightness Start Highest point End Pass type
(mag) Time Alt. Az. Time Alt. Az. Time Alt. Az.
28 May - 05:18:18 10° NNW 05:23:33 28° NNE 05:28:59 10° E visible
28 May - 07:10:37 10° WNW 07:17:01 79° SSW 07:23:54 10° SE daylight
28 May - 09:05:41 10° WSW 09:10:53 23° SSW 09:16:23 10° SSE daylight
28 May - 14:58:12 10° SSE 14:58:27 10° SSE 14:58:42 10° SSE daylight
28 May - 16:46:58 10° SSW 16:53:30 28° SSE 16:59:51 10° E daylight
28 May - 18:39:48 10° WSW 18:47:34 86° SSE 18:54:54 10° ENE visible
28 May - 20:35:07 10° W 20:41:22 29° NNW 20:47:16 10° NNE visible
29 May - 04:18:14 10° NNW 04:22:21 18° NNE 04:26:32 10° ENE visible
29 May - 06:09:42 10° NW 06:15:57 69° NNE 06:22:34 10° ESE daylight
29 May - 08:03:46 10° W 08:09:33 33° SSW 08:15:41 10° SE daylight
29 May - 10:02:19 10° SSW 10:04:06 11° SSW 10:05:55 10° S daylight
29 May - 15:46:24 10° SSW 15:51:54 20° SSE 15:57:20 10° ESE daylight
29 May - 17:38:31 10° SW 17:46:14 60° SSE 17:53:36 10° ENE daylight
29 May - 19:32:52 10° W 19:40:03 43° NNW 19:46:48 10° NE visible
29 May - 21:31:07 10° NW 21:34:14 13° NNW 21:37:17 10° N visible
30 May - 03:18:51 10° N 03:21:01 12° NNE 03:23:10 10° NE visible
30 May - 05:09:02 10° NW 05:14:54 43° NNE 05:20:59 10° E visible
30 May - 07:02:13 10° WNW 07:08:20 49° SSW 07:14:50 10° SE daylight
30 May - 08:58:45 10° SW 09:02:28 15° SSW 09:06:20 10° SSE daylight
30 May - 14:46:15 10° S 14:50:11 14° SSE 14:54:07 10° SE daylight
30 May - 16:37:29 10° SW 16:44:48 42° SSE 16:51:56 10° E daylight
30 May - 18:31:01 10° WSW 18:38:44 64° NNW 18:46:03 10° NE visible
30 May - 20:27:32 10° WNW 20:32:43 20° NNW 20:37:43 10° NNE visible
31 May - 04:08:34 10° NNW 04:13:49 28° NNE 04:19:07 10° E visible
31 May - 06:01:00 10° WNW 06:07:15 76° SSW 06:13:48 10° SE daylight
31 May - 07:56:13 10° WSW 08:01:01 21° SSW 08:06:02 10° SSE daylight
31 May - 15:36:43 10° SSW 15:43:18 29° SSE 15:49:51 10° E daylight
31 May - 17:29:29 10° WSW 17:37:23 88° SSE 17:45:00 10° ENE daylight
31 May - 19:24:48 10° W 19:31:17 29° NNW 19:37:30 10° NNE visible
01 Jun - 03:08:24 10° NNW 03:12:37 18° NNE 03:16:49 10° ENE visible
01 Jun - 05:00:02 10° NW 05:06:14 70° NNE 05:12:36 10° ESE visible
01 Jun - 06:54:13 10° W 06:59:44 31° SSW 07:05:29 10° SSE daylight
01 Jun - 14:36:14 10° SSW 14:41:42 21° SSE 14:47:15 10° ESE daylight
01 Jun - 16:28:15 10° SW 16:36:00 62° SSE 16:43:37 10° ENE daylight
01 Jun - 18:22:34 10° W 18:29:53 43° NNW 18:36:56 10° NE visible
01 Jun - 20:20:41 10° NW 20:24:14 14° NNW 20:27:42 10° N visible
02 Jun - 02:08:45 10° N 02:11:15 12° NNE 02:13:45 10° NE visible
02 Jun - 03:59:16 10° NW 04:05:12 44° NNE 04:11:08 10° E visible
02 Jun - 05:52:38 10° WNW 05:58:35 47° SSW 06:04:46 10° SE daylight
02 Jun - 07:49:27 10° SW 07:52:37 14° SSW 07:55:52 10° S daylight
02 Jun - 13:36:13 10° S 13:40:02 14° SSE 13:43:55 10° SE daylight
02 Jun - 15:27:17 10° SW 15:34:34 42° SSE 15:41:52 10° E daylight
02 Jun - 17:20:44 10° WSW 17:28:30 64° NNW 17:36:05 10° NE daylight
02 Jun - 19:17:12 10° WNW 19:22:39 20° NNW 19:27:55 10° NNE visible
03 Jun - 02:58:43 10° NNW 03:04:06 29° NNE 03:09:24 10° E visible
03 Jun - 04:51:19 10° WNW 04:57:32 73° SSW 05:03:52 10° SE visible
03 Jun - 06:46:45 10° WSW 06:51:13 20° SSW 06:55:49 10° SSE daylight
03 Jun - 14:26:36 10° SSW 14:33:05 29° SSE 14:39:42 10° E daylight
03 Jun - 16:19:16 10° WSW 16:27:07 90° SSE 16:34:56 10° ENE daylight
03 Jun - 18:14:31 10° W 18:21:08 30° NNW 18:27:35 10° NNE visible
04 Jun - 01:58:23 10° NNW 02:02:52 19° NNE 02:07:15 10° ENE visible
04 Jun - 03:50:15 10° NW 03:56:32 72° NNE 04:02:46 10° ESE visible
04 Jun - 05:44:39 10° W 05:49:59 29° SSW 05:55:27 10° SSE daylight
04 Jun - 13:26:14 10° SSW 13:31:33 20° SSE 13:37:00 10° ESE daylight
04 Jun - 15:18:06 10° SW 15:25:44 63° SSE 15:33:28 10° ENE daylight
04 Jun - 17:12:20 10° W 17:19:40 43° NNW 17:26:55 10° NE daylight
04 Jun - 19:10:19 10° NW 19:14:09 14° NNW 19:17:56 10° N visible
05 Jun - 00:58:26 10° N 01:01:29 13° NNE 01:04:28 10° NE night (unlit)
05 Jun - 02:49:23 10° NW 02:55:29 46° NNE 03:01:26 10° ESE visible
05 Jun - 04:42:57 10° W 04:48:53 45° SSW 04:54:51 10° SE visible
05 Jun - 06:40:10 10° SW 06:42:49 13° SSW 06:45:32 10° S daylight
05 Jun - 12:26:24 10° S 12:29:57 14° SSE 12:33:33 10° SE daylight
05 Jun - 14:17:14 10° SW 14:24:20 43° SSE 14:31:40 10° E daylight
05 Jun - 16:10:35 10° WSW 16:18:15 62° NNW 16:25:58 10° NE daylight
05 Jun - 18:06:57 10° WNW 18:12:29 21° NNW 18:17:57 10° NNE daylight
06 Jun - 01:48:42 10° NNW 01:54:22 30° NNE 01:59:48 10° E night (unlit)
06 Jun - 03:41:32 10° WNW 03:47:51 71° SSW 03:54:04 10° SE visible
06 Jun - 05:37:12 10° WSW 05:41:28 19° SSW 05:45:47 10° SSE daylight
06 Jun - 13:16:39 10° SSW 13:22:55 29° SSE 13:29:26 10° E daylight
06 Jun - 15:09:11 10° WSW 15:16:52 89° NNW 15:24:44 10° ENE daylight
06 Jun - 17:04:20 10° W 17:10:55 29° NNW 17:17:29 10° NNE daylight
